This is the latest recevied weather packets stored in our database for station/object N5SRF. If no packets are shown the sender has not sent any weather packets the latest 10 day(s).
| Time | Temp. | Humidity | Pressure | Rain* | Wind** | Luminosity | Snow |
|---|---|---|---|---|---|---|---|
| 1777939209 | 23.89° C | 74% | 1014.4 hPa | 0 mm | - | 64 W/m² | - |
| 1777938906 | 23.89° C | 74% | 1014.1 hPa | 0 mm | - | 81 W/m² | - |
| 1777938602 | 23.89° C | 74% | 1014.2 hPa | 0 mm | - | 88 W/m² | - |
| 1777938300 | 24.44° C | 73% | 1014.1 hPa | 0 mm | - | 82 W/m² | - |
| 1777937996 | 24.44° C | 72% | 1014.1 hPa | 0 mm | - | 78 W/m² | - |
| 1777937691 | 24.44° C | 72% | 1014.2 hPa | 0 mm | - | 83 W/m² | - |
| 1777937389 | 24.44° C | 71% | 1014.6 hPa | 0 mm | - | 104 W/m² | - |
| 1777937086 | 24.44° C | 71% | 1014.4 hPa | 0 mm | - | 114 W/m² | - |
| 1777936783 | 25° C | 72% | 1014.5 hPa | 0 mm | - | 109 W/m² | - |
| 1777936479 | 25° C | 70% | 1014.9 hPa | 0 mm | - | 118 W/m² | - |
| 1777936175 | 25° C | 70% | 1014.8 hPa | 0 mm | - | 158 W/m² | - |
| 1777935872 | 25.56° C | 70% | 1014.7 hPa | 0 mm | - | 113 W/m² | - |
| 1777935572 | 25.56° C | 70% | 1014.8 hPa | 0 mm | - | 167 W/m² | - |
| 1777935268 | 25.56° C | 70% | 1014.6 hPa | 0 mm | - | 148 W/m² | - |
| 1777934965 | 25.56° C | 69% | 1014.4 hPa | 0 mm | - | 183 W/m² | - |
| 1777934662 | 26.11° C | 68% | 1014.8 hPa | 0 mm | - | 143 W/m² | - |
| 1777934359 | 26.11° C | 67% | 1014.8 hPa | 0 mm | - | 169 W/m² | - |
| 1777934054 | 26.11° C | 67% | 1014.9 hPa | 0 mm | - | 265 W/m² | - |
| 1777933751 | 26.67° C | 66% | 1014.8 hPa | 0 mm | - | 135 W/m² | - |
| 1777933448 | 27.22° C | 63% | 1014.9 hPa | 0 mm | - | 278 W/m² | - |
| 1777933146 | 27.22° C | 63% | 1014.8 hPa | 0 mm | - | 371 W/m² | - |
| 1777932843 | 27.22° C | 62% | 1014.6 hPa | 0 mm | - | 366 W/m² | - |
| 1777932539 | 27.22° C | 62% | 1014.9 hPa | 0 mm | - | 436 W/m² | - |
| 1777932231 | 26.67° C | 64% | 1015.1 hPa | 0 mm | - | 339 W/m² | - |
| 1777931928 | 26.67° C | 65% | 1015.2 hPa | 0 mm | - | 186 W/m² | - |
* Rain latest hour (hover to see other rain measurements)
** Current wind speed in m/s (hover to see current wind gust speed)